Date String (YYYY-MM-DD hh:mm:ss) UTC,Instrument flags,absolute air pressure of the measurement (hPa),sample flow rate (lpm),inlet stack bypass flow (lpm),air temperature of the measurement (°C),ambient temperature measured by the external sensor (°C),aerosol sample conditioner tube jacket temperature (°C),OPC LED temperature (°C),internal box temperature (°C),relative humidity of the measurement (%),span deviation,mass concentration of particles derived from Lorenz-Mie calculation of OPC scattering (μg/m³),mass concentration of particles derived from Lorenz-Mie calculation of OPC scattering (μg/m³),mass concentration of particles derived from Lorenz-Mie calculation of OPC scattering (μg/m³)
DateTimeUTC,F1_M11,P_M11,Q1_M11,Q2_M11,T1_M11,T2_M11,T3_M11,T4_M11,T5_M11,U1_M11,ZSPAN_M11,X0_M11,X2_M11,X1_M11
2023-07-03 03:00:00,SystemResetWarning,0831.7,5.00,000.00,028.9,026.5,000.0,037.3,030.5,25.5,0000.0,0010.58,0005.58,0005.11
2023-07-03 03:01:00,SystemResetWarning,0831.7,5.00,000.00,028.9,026.9,000.0,037.3,030.5,25.7,0000.0,0011.20,0005.60,0005.07
2023-07-03 03:02:00,SystemResetWarning,0831.8,5.01,000.00,029.0,027.2,000.0,037.4,030.6,25.7,0000.0,0011.57,0005.58,0005.03
2023-07-03 03:03:00,SystemResetWarning,0832.1,5.00,000.00,029.0,027.5,000.0,037.4,030.7,25.8,0000.0,0011.64,0005.51,0004.97
2023-07-03 03:04:00,SystemResetWarning,0832.0,5.00,000.00,029.0,027.7,000.0,037.4,030.8,25.4,-000.0,0011.56,0005.43,0004.92
2023-07-03 03:05:00,SystemResetWarning,0832.2,4.99,000.00,029.1,027.7,000.0,037.4,030.8,25.3,-000.5,0011.53,0005.40,0004.87
2023-07-03 03:06:00,SystemResetWarning,0832.0,5.00,000.00,029.1,026.1,000.0,037.3,030.6,25.3,-000.0,0012.08,0005.35,0004.81
2023-07-03 03:07:00,SystemResetWarning,0832.2,5.00,000.00,029.0,025.4,000.0,037.2,030.5,25.3,0000.4,0011.70,0005.30,0004.77
2023-07-03 03:08:00,SystemResetWarning,0832.2,5.00,000.00,028.9,025.5,000.0,037.2,030.3,25.4,0001.2,0011.90,0005.26,0004.72
2023-07-03 03:09:00,SystemResetWarning,0832.2,5.01,000.00,028.9,025.9,000.0,037.3,030.3,25.6,0000.0,0012.40,0005.22,0004.66
2023-07-03 03:10:00,SystemResetWarning,0831.9,5.00,000.00,028.9,026.3,000.0,037.3,030.4,25.7,0000.0,0012.33,0005.15,0004.61
2023-07-03 03:11:00,SystemResetWarning,0831.8,4.99,000.00,028.9,026.7,000.0,037.3,030.5,25.7,0000.0,0012.49,0005.06,0004.57
2023-07-03 03:12:00,SystemResetWarning,0831.9,5.00,000.00,029.0,027.1,000.0,037.4,030.6,25.6,-000.0,0011.97,0005.01,0004.51
2023-07-03 03:13:00,SystemResetWarning,0831.9,5.00,000.00,029.0,027.3,000.0,037.4,030.7,26.0,0000.7,0011.39,0004.97,0004.48
2023-07-03 03:14:00,SystemResetWarning,0832.0,5.01,000.00,029.0,027.6,000.0,037.4,030.8,26.1,0002.0,0011.78,0004.99,0004.46
2023-07-03 03:15:00,SystemResetWarning,0832.0,5.01,000.00,029.1,027.8,000.0,037.5,030.8,25.8,0001.4,0011.82,0005.02,0004.44
2023-07-03 03:16:00,SystemResetWarning,0832.0,5.00,000.00,029.1,027.2,000.0,037.4,030.8,25.7,0000.0,0011.25,0004.97,0004.42
2023-07-03 03:17:00,SystemResetWarning,0832.0,4.99,000.00,029.1,025.7,000.0,037.3,030.6,25.6,0000.0,0011.37,0004.97,0004.41
2023-07-03 03:18:00,SystemResetWarning,0832.0,5.02,000.00,029.0,025.4,000.0,037.2,030.4,25.3,0000.0,0011.26,0004.95,0004.38
2023-07-03 03:19:00,SystemResetWarning,0832.1,5.00,000.00,029.0,025.7,000.0,037.3,030.3,25.3,0000.0,0011.18,0004.98,0004.37
2023-07-03 03:20:00,SystemResetWarning,0832.1,5.00,000.00,028.9,026.1,000.0,037.3,030.4,25.3,0000.0,0010.95,0004.98,0004.36
2023-07-03 03:21:00,SystemResetWarning,0832.1,5.00,000.00,028.9,026.5,000.0,037.4,030.5,25.4,0000.0,0011.67,0005.01,0004.34
2023-07-03 03:22:00,SystemResetWarning,0832.2,4.99,000.00,029.0,026.8,000.0,037.4,030.6,25.4,0000.0,0012.72,0005.01,0004.32
2023-07-03 03:23:00,SystemResetWarning,0832.2,4.99,000.00,029.0,027.2,000.0,037.4,030.6,25.5,0000.0,0012.67,0005.01,0004.30
2023-07-03 03:24:00,SystemResetWarning,0832.2,5.00,000.00,029.0,027.4,000.0,037.4,030.7,25.4,0000.0,0013.05,0005.02,0004.30
2023-07-03 03:25:00,SystemResetWarning,0832.2,5.01,000.00,029.1,027.7,000.0,037.5,030.8,25.3,0000.0,0013.72,0005.00,0004.28
2023-07-03 03:26:00,SystemResetWarning,0832.2,5.01,000.00,029.1,027.9,000.0,037.5,030.9,25.4,0000.0,0014.39,0004.96,0004.26
2023-07-03 03:27:00,SystemResetWarning,0832.2,5.00,000.00,029.2,028.0,000.0,037.5,030.9,25.3,0000.0,0015.23,0004.98,0004.24
2023-07-03 03:28:00,SystemResetWarning,0832.3,4.98,000.00,029.2,026.8,000.0,037.4,030.8,25.4,0000.0,0015.89,0004.99,0004.23
2023-07-03 03:29:00,SystemResetWarning,0832.2,5.02,000.00,029.1,025.5,000.0,037.3,030.6,25.4,0000.0,0015.92,0005.05,0004.22
2023-07-03 03:30:00,SystemResetWarning,0832.2,5.01,000.00,029.1,025.5,000.0,037.3,030.4,25.5,0000.0,0015.74,0005.03,0004.22
2023-07-03 03:31:00,SystemResetWarning,0832.3,4.99,000.00,029.0,025.8,000.0,037.3,030.4,25.7,0000.0,0016.10,0005.04,0004.22
2023-07-03 03:32:00,SystemResetWarning,0832.3,5.00,000.00,029.0,026.2,000.0,037.4,030.4,25.7,0000.0,0015.39,0005.01,0004.22
2023-07-03 03:33:00,SystemResetWarning,0832.3,5.01,000.00,029.0,026.6,000.0,037.4,030.5,25.7,0000.0,0014.44,0005.03,0004.22
2023-07-03 03:34:00,SystemResetWarning,0832.4,5.01,000.00,029.0,027.0,000.0,037.4,030.6,25.6,0000.0,0014.49,0005.07,0004.23
2023-07-03 03:35:00,SystemResetWarning,0832.5,4.99,000.00,029.0,027.3,000.0,037.5,030.7,25.6,0000.0,0014.50,0005.09,0004.24
2023-07-03 03:36:00,SystemResetWarning,0832.5,4.99,000.00,029.1,027.5,000.0,037.5,030.8,25.5,0000.0,0013.72,0005.17,0004.25
2023-07-03 03:37:00,SystemResetWarning,0832.5,5.00,000.00,029.1,027.8,000.0,037.5,030.8,25.4,0000.0,0013.43,0005.18,0004.25
2023-07-03 03:38:00,SystemResetWarning,0832.5,5.01,000.00,029.2,028.0,000.0,037.5,030.9,25.4,0000.0,0013.27,0005.17,0004.25
2023-07-03 03:39:00,SystemResetWarning,0832.5,5.00,000.00,029.2,027.2,000.0,037.5,030.9,25.6,0000.0,0012.91,0005.13,0004.24
2023-07-03 03:40:00,SystemResetWarning,0832.5,4.99,000.00,029.2,025.7,000.0,037.4,030.6,26.3,0000.0,0013.16,0005.07,0004.23
2023-07-03 03:41:00,SystemResetWarning,0832.5,5.01,000.00,029.1,025.5,000.0,037.3,030.5,26.2,0000.0,0014.04,0005.10,0004.23
2023-07-03 03:42:00,SystemResetWarning,0832.5,5.01,000.00,029.0,025.7,000.0,037.4,030.4,26.3,0000.0,0013.75,0005.12,0004.24
2023-07-03 03:43:00,SystemResetWarning,0832.5,5.00,000.00,029.0,026.1,000.0,037.4,030.4,25.9,0000.0,0013.68,0005.15,0004.25
2023-07-03 03:44:00,SystemResetWarning,0832.6,5.00,000.00,029.0,026.5,000.0,037.4,030.5,26.1,0000.0,0013.71,0005.15,0004.26
2023-07-03 03:45:00,SystemResetWarning,0832.6,5.00,000.00,029.0,026.9,000.0,037.5,030.6,26.2,0000.0,0013.25,0005.12,0004.25
2023-07-03 03:46:00,SystemResetWarning,0832.6,4.99,000.00,029.1,027.2,000.0,037.5,030.7,26.0,0000.0,0012.98,0005.10,0004.25
2023-07-03 03:47:00,SystemResetWarning,0832.7,5.00,000.00,029.1,027.5,000.0,037.5,030.8,26.0,0000.0,0012.62,0005.04,0004.26
2023-07-03 03:48:00,SystemResetWarning,0832.6,5.01,000.00,029.1,027.7,000.0,037.5,030.8,25.8,0000.0,0012.14,0005.04,0004.28
2023-07-03 03:49:00,SystemResetWarning,0832.6,5.01,000.00,029.2,027.9,000.0,037.6,030.9,25.8,0000.0,0011.90,0005.06,0004.30
2023-07-03 03:50:00,SystemResetWarning,0832.7,4.99,000.00,029.2,028.0,000.0,037.6,030.9,25.5,0000.0,0011.62,0005.12,0004.34
2023-07-03 03:51:00,SystemResetWarning,0832.6,4.99,000.00,029.2,026.7,000.0,037.5,030.8,25.5,0000.0,0011.32,0005.17,0004.36
2023-07-03 03:52:00,SystemResetWarning,0832.7,5.00,000.00,029.1,025.4,000.0,037.4,030.5,25.5,0000.0,0010.56,0005.15,0004.38
2023-07-03 03:53:00,SystemResetWarning,0832.6,5.01,000.00,029.1,025.4,000.0,037.4,030.4,25.5,0000.0,0010.50,0005.15,0004.39
2023-07-03 03:54:00,SystemResetWarning,0832.7,5.01,000.00,029.0,025.7,000.0,037.4,030.3,25.7,0000.0,0010.49,0005.14,0004.40
2023-07-03 03:55:00,SystemResetWarning,0832.7,4.99,000.00,029.0,026.1,000.0,037.4,030.4,25.7,0000.0,0010.53,0005.16,0004.41
2023-07-03 03:56:00,SystemResetWarning,0832.7,5.00,000.00,029.0,026.5,000.0,037.5,030.5,25.6,0000.0,0010.88,0005.14,0004.43
2023-07-03 03:57:00,SystemResetWarning,0832.7,5.00,000.00,029.0,026.9,000.0,037.5,030.6,26.1,0000.0,0010.84,0005.12,0004.44
2023-07-03 03:58:00,SystemResetWarning,0832.7,4.99,000.00,029.0,027.2,000.0,037.5,030.7,27.1,0000.0,0011.47,0005.11,0004.45
2023-07-03 03:59:00,SystemResetWarning,0832.8,5.00,000.00,029.1,027.5,000.0,037.5,030.7,26.7,0000.0,0012.93,0005.10,0004.45
